Regional Weather Roundup
Issued by NWS

Home | Current Version | Previous Version | Graphics & Text | Print | Product List | Glossary On
Versions: 1 2 3 4 5 6 7 8 9 10 11 12 13 14 15 16 17 18 19 20 21 22 23 24 25 26 27 28 29 30 31 32 33 34 35 36 37 38 39 40 41 42 43 44 45 46 47 48 49 50
000
ASUS45 KBOU 280607
RWRCO

WEATHER ROUNDUP FOR COLORADO
NATIONAL WEATHER SERVICE DENVER/BOULDER CO
1100 PM MST THU NOV 27 2014

NOTE: "FAIR" INDICATES FEW OR NO CLOUDS BELOW 12000 FEET WITH NO
SIGNIFICANT WEATHER AND/OR OBSTRUCTIONS TO VISIBILITY.

COZ001>005-013-030-031-280700-
...NORTHWEST COLORADO...

CITY           SKY/WX    TMP DP  RH WIND       PRES   REMARKS
CRAIG          PTCLDY    30  26  85 CALM      30.24F
HAYDEN         MOCLDY    34  25  69 E10       30.24F WCI  26
MEEKER         PTCLDY    33  21  61 CALM      30.26F
MOUNT WERNER   NOT AVBL
STEAMBOAT SPGS MOCLDY    26  25  94 CALM      30.26F
WALDEN         CLOUDY    37  16  41 S12       30.25S
$$

COZ006>008-011-280700-
...WEST CENTRAL VALLEYS...

CITY           SKY/WX    TMP DP  RH WIND       PRES   REMARKS
GRAND JUNCTION PTCLDY    34  24  67 CALM      30.28F
MONTROSE       CLEAR     29  22  75 S8        30.33F WCI  21
EAGLE          PTCLDY    30  27  86 CALM      30.34S
RIFLE          PTCLDY    31  27  85 CALM      30.31F
DELTA          CLEAR     35  25  67 CALM      30.31F
NUCLA          CLEAR     34  23  64 SE6       30.35S WCI  29
$$

COZ017>023-064>068-280700-
...SOUTHWEST COLORADO...

CITY           SKY/WX    TMP DP  RH WIND       PRES   REMARKS
DURANGO        PTCLDY    27  20  75 CALM      30.35F
CORTEZ         CLEAR     25  17  72 E8        30.34S WCI  16
PAGOSA SPRINGS PTCLDY    27  19  72 CALM      30.39S
TELLURIDE      PTCLDY    35  17  46 SE7       30.45S WCI  30
WOLF CREEK PAS CLEAR     28  12  50 MISG      30.50S
$$

COZ009-010-012-014-032>034-037-058>063-280700-
...CENTRAL COLORADO...

CITY           SKY/WX    TMP DP  RH WIND       PRES   REMARKS
ASPEN          PTCLDY    30  20  66 SW6       30.33F WCI  24
BUENA VISTA    PTCLDY    45  10  23 W5        30.27F
COPPER MTN     PTCLDY    34  10  37 SW14G21   30.44F WCI  24
BERTHOUD PASS  NOT AVBL
COTTONWOOD PAS PTCLDY    45   3  18 W23G43    30.30F
GUNNISON       PTCLDY    19  12  73 NE5       30.44S WCI  13
KREMMLING      PTCLDY    32  25  74 CALM      30.31F
LEADVILLE      PTCLDY    37   9  31 NE7G21    30.36F
MONARCH PASS   PTCLDY    28  10  47 W37G46    30.52F WCI  11
SALIDA         PTCLDY    47  13  26 SW22      30.31F
SUNLIGHT       MOCLDY    30  23  74 SW3       30.42F
WILKERSON PASS CLEAR     32   7  34 W13G25    30.34R WCI  22
$$

COZ069>075-280700-
...SAN LUIS VALLEY/SANGRE DE CRISTO MOUNTAINS...

CITY           SKY/WX    TMP DP  RH WIND       PRES   REMARKS
ALAMOSA        MOCLDY    22  14  71 E6        30.33F WCI  14
LA VETA PASS   PTCLDY    34  18  51 S14G28    30.37R WCI  24
SAGUACHE       PTCLDY    28  19  69 N9        30.34F WCI  20
$$

COZ035-036-038>040-280700-
...NORTHERN COLORADO FRONT RANGE...

CITY           SKY/WX    TMP DP  RH WIND       PRES   REMARKS
DENVER INTL AP PTCLDY    45  18  34 S8        30.07F
DMNS CITY PARK   N/A     51  16  25 S6        30.06F
AURORA         PTCLDY    47  17  29 S7        30.10F
FRONT RANGE AP CLEAR     41  27  56 S16       30.09F
ERIE MUNI ARPT PTCLDY    45  18  34 CALM      30.05F
BOULDER MUN AP PTCLDY    54  19  26 CALM      30.05S
CENTENNIAL     PTCLDY    46  18  32 S8        30.10F
BROOMFIELD     PTCLDY    59  14  17 SW16G23   30.07S
FORT COLLINS   CLEAR     43  19  39 N8        30.05F
LONGMONT       CLEAR     51  20  28 NW7       30.05F
$$

COZ041-046-047-076>085-087-088-280700-
...PIKES PEAK/PALMER DIVIDE AND SOUTHERN FOOTHILLS...

CITY           SKY/WX    TMP DP  RH WIND       PRES   REMARKS
COLO. SPRINGS  PTCLDY    52  13  21 VRB3      30.16F
A. F. ACADEMY  PTCLDY    53  11  18 W20G25    30.15F
ELLICOTT       NOT AVBL
FALCON         NOT AVBL
FORT CARSON    PTCLDY    52  16  23 W10       30.14F
LIMON          CLEAR     24  18  77 N9        30.11F WCI  14
MONUMENT HILL  PTCLDY    39  14  35 SW9       30.16F
TRINIDAD       PTCLDY    38  22  52 W10       30.19F
$$

COZ042>045-048>051-090-091-280700-
...NORTHEAST COLORADO...

CITY           SKY/WX    TMP DP  RH WIND       PRES   REMARKS
GREELEY ARPT   CLEAR     34  21  60 E5        30.05S WCI  30
AKRON          CLEAR     38  25  59 SW12      30.04F
BURLINGTON     CLEAR     39  22  50 W12       30.05F
WRAY           CLEAR     36  28  73 SW7       30.03S
STERLING       CLEAR     32  28  86 W6        30.02F WCI  26
HOLYOKE        CLEAR     34  28  80 W12       30.01F WCI  25
FORT MORGAN    CLEAR     37  24  59 W8        30.05F
$$

COZ086-089-092>099-280700-
...SOUTHEAST COLORADO...

CITY           SKY/WX    TMP DP  RH WIND       PRES   REMARKS
PUEBLO         PTCLDY    42  22  44 NW8       30.12S
LA JUNTA       CLEAR     42  23  46 W6        30.08F
LAMAR          PTCLDY    28  22  78 SW6       30.05F WCI  22
SPRINGFIELD      N/A     49  20  31 W16       30.09F
$$



USA.gov is the U.S. government's official web portal to all federal, state and local government web resources and services.